 +/-0.0000028      Node   299.58644     -0.15386943     +0.94011672

e   0.9997617      Incl.  108.41444     +0.87929898     -0.01013239

From 204 observations 2005 Mar. 22-2006 Jan. 3, mean residual 0".56.

   (1/a)org.= +0.000013, (1/a)fut.= +0.000045 (+/-0.000003), Q= 7.

 

Date/        TT  R.A.(2000) Decl.     Delta   r     Daily motion  Mag.  Moon Age

              h    h  m       。  ,                      ,  / PA 。  m1      。

2006 Jan.  4 18  15 22.86  +54 35.9   4.875  4.978    12.0 /   3  17.7  112  .28

           5 18  15 22.94  +54 47.9   4.865  4.977    12.1 /   3  17.7  112  .38

           6 18  15 23.01  +55 00.0   4.856  4.977    12.3 /   2  17.7  111  .50

           7 18  15 23.06  +55 12.3   4.847  4.976    12.5 /   1  17.7  109  .60

           8 18  15 23.08  +55 24.8   4.838  4.975    12.7 /   0  17.6  106  .71

           9 18  15 23.09  +55 37.5   4.829  4.975    12.8 / 359  17.6  102  .80

          10 18  15 23.08  +55 50.3   4.820  4.974    13.0 / 359  17.6   97  .87

          11 18  15 23.04  +56 03.3   4.811  4.974    13.2 / 358  17.6   92  .93

          12 18  15 22.98  +56 16.5   4.802  4.973    13.4 / 357  17.6   88  .97

          13 18  15 22.91  +56 29.9   4.793  4.973    13.5 / 356  17.6   83  .99

          14 18  15 22.80  +56 43.4   4.785  4.972    13.7 / 356  17.6   79 1.00

          15 18  15 22.68  +56 57.1   4.776  4.972    13.9 / 355  17.6   76  .98

          16 18  15 22.52  +57 10.9   4.768  4.971    14.1 / 354  17.6   73  .95

          17 18  15 22.35  +57 24.9   4.759  4.971    14.2 / 353  17.6   71  .90

          18 18  15 22.14  +57 39.1   4.751  4.970    14.4 / 353  17.6   70  .84

          19 18  15 21.91  +57 53.4   4.743  4.970    14.6 / 352  17.6   70  .76

          20 18  15 21.65  +58 07.8   4.735  4.969    14.8 / 351  17.6   71  .68

          21 18  15 21.36  +58 22.4   4.727  4.969    14.9 / 350  17.6   72  .59

          22 18  15 21.04  +58 37.1   4.719  4.968    15.1 / 350  17.6   75  .49

          23 18  15 20.69  +58 52.0   4.712  4.968    15.3 / 349  17.6   79  .39

          24 18  15 20.31  +59 06.9   4.704  4.967    15.4 / 348  17.6   83  .29

          25 18  15 19.89  +59 22.0   4.697  4.967    15.6 / 347  17.6   88  .20

          26 18  15 19.44  +59 37.2   4.689  4.967    15.8 / 347  17.6   93  .11

          27 18  15 18.95  +59 52.6   4.682  4.966    15.9 / 346  17.6   98  .05

          28 18  15 18.42  +60 08.0   4.675  4.966    16.1 / 345  17.6  103  .01

          29 18  15 17.86  +60 23.5   4.668  4.966    16.3 / 344  17.6  106  .00

          30 18  15 17.26  +60 39.2   4.662  4.965    16.4 / 343  17.6  109  .02

          31 18  15 16.61  +60 54.9   4.655  4.965    16.6 / 343  17.6  110  .07

     Feb.  1 18  15 15.93  +61 10.7   4.649  4.965    16.7 / 342  17.6  109  .14

           2 18  15 15.20  +61 26.6   4.643  4.964    16.9 / 341  17.6  107  .23

           3 18  15 14.42  +61 42.5   4.637  4.964    17.0 / 340  17.5  104  .34

           4 18  15 13.60  +61 58.5   4.631  4.964    17.2 / 339  17.5  100  .44

           5 18  15 12.74  +62 14.5   4.625  4.963    17.3 / 338  17.5   96  .55

NAKANO

         **** Don't distribute anyone except personal use only ****

                (C) Copyright 2006 OAA/ComputingSection

write mail from CFAD0::NAKANO on 2006-01-05 05:57:23(JST).

 

    

    C/2005 G1 (LINEAR)

Epoch 2006 Mar. 6.0 TT = JDT 2453800.5  

T 2006 Feb. 27.36094 TT                                 Nakano

q   4.9607564            (2000.0)            P               Q

z  +0.0000317      Peri.  113.82217     -0.45071691     -0.34072420

 +/-0.0000075      Node   299.58669     -0.15390913     +0.94010907

e   0.9998427      Incl.  108.41442     +0.87929873     -0.01009758

From 198 observations 2005 Mar. 22-Sept. 22, mean residual 0".56.

   (1/a)org.= -0.000003, (1/a)fut.= +0.000028 (+/-0.000007), Q= 7.



NAKANO

         **** Don't distribute anyone except personal use only ****

                (C) Copyright 2005 OAA/ComputingSection

write mail from CFAD0::NAKANO on 2005-11-03 23:39:18(JST).

 

C/2005 G1 (LINEAR)



Epoch 2006 Mar. 6.0 TT = JDT 2453800.5  

T 2006 Feb. 27.34532 TT                                 Nakano

q   4.9608193            (2000.0)            P               Q

z  +0.0000172      Peri.  113.82054     -0.45070811     -0.34074123

 +/-0.0000114      Node   299.58697     -0.15393789     +0.94010316

e   0.9999149      Incl.  108.41441     +0.87929820     -0.01007319

From 193 observations 2005 Mar. 22-Aug. 29, mean residual 0".56.

   (1/a)org.= -0.000017, (1/a)fut.= +0.000014 (+/-0.000011), Q= 6.



NAKANO

         **** Don't distribute anyone except personal use only ****

                (C) Copyright 2005 OAA/ComputingSection

write mail from CFAD0::NAKANO on 2005-09-12 05:45:24(JST).

 





    C/2005 G1 (LINEAR)                                                    

Epoch 2006 Mar. 6.0 TT = JDT 2453800.5  

T 2006 Feb. 27.29323 TT                                 Nakano

q   4.9610493            (2000.0)            P               Q

z  -0.0000033      Peri.  113.81361     -0.45066416     -0.34079394

 +/-0.0000444      Node   299.58679     -0.15404941     +0.94008518

e   1.0000164      Incl.  108.41425     +0.87930120     -0.00996706

From 163 observations 2005 Mar. 22-June 13, mean residual 0".58.

   (1/a)org.= -0.000038, (1/a)fut.= -0.000007 (+/-0.000044), Q= 5.



NAKANO

         **** Don't distribute anyone except personal use only ****

                (C) Copyright 2005 OAA/ComputingSection

write mail from CFAD0::NAKANO on 2005-07-03 02:21:28(JST).



    C/2005 G1 (LINEAR)                                                    

T 2006 Feb. 27.11220 TT                                 Nakano

q   4.9613688            (2000.0)            P               Q

                   Peri.  113.79153     -0.45054407     -0.34103900

                   Node   299.59139     -0.15444300     +0.93999971

e   1.0            Incl.  108.41384     +0.87929370     -0.00964038

From 147 observations 2005 Mar. 22-May 29.



NAKANO

         **** Don't distribute anyone except personal use only ****

                (C) Copyright 2005 OAA/ComputingSection

write mail from CFAD0::NAKANO on 2005-06-05 05:59:11(JST).

 





    C/2005 G1 (LINEAR)                                                    

T 2006 Feb. 27.41969 TT                                 Nakano

q   4.9597854            (2000.0)            P               Q

                   Peri.  113.84053     -0.45088852     -0.34074650

                   Node   299.59841     -0.15369964     +0.94009767

e   1.0            Incl.  108.41592     +0.87924739     -0.01040209

From 111 observations 2005 Mar. 22-May 4.



See in EMES for C/2005 GF8 (LONEOS) and C/2005 H1 (LINEAR).



NAKANO

         **** Don't distribute anyone except personal use only ****

                (C) Copyright 2005 OAA/ComputingSection

write mail from CFAD0::NAKANO on 2005-05-07 04:29:59(JST).

◎C/2005 G1の軌道と予報位置です



  久万の中村彰正氏から,4月14日の観測が 報告されました.氏のCCD全光度は

4月5日に18.6等,14日に18.5等でした.



    C/2005 G1 (LINEAR)                                                    

T 2006 Feb. 26.71249 TT                                 Nakano

q   4.9635799            (2000.0)            P               Q

                   Peri.  113.72714     -0.45010723     -0.34146293

                   Node   299.58502     -0.15544220     +0.93985548

e   1.0            Incl.  108.41155     +0.87934135     -0.00864480

From 68 observations 2005 Mar. 22-Apr. 14.

 

Date/        TT  R.A.(2000) Decl.     Delta   r     Daily motion  Mag.  Moon Age

              h    h  m       。  ,                      ,  / PA 。  m1      。

2005 Apr. 15 18  18 04.07  +49 59.6   5.319  5.524    17.0 / 333  18.7  101  .42

          16 18  18 03.27  +50 14.8   5.311  5.521    17.1 / 333  18.7   99  .51

          17 18  18 02.45  +50 30.0   5.303  5.517    17.1 / 332  18.7   98  .61

          18 18  18 01.60  +50 45.0   5.296  5.514    17.2 / 331  18.7   95  .70

          19 18  18 00.72  +51 00.0   5.288  5.511    17.2 / 330  18.7   93  .78

          20 18  17 59.81  +51 15.0   5.281  5.508    17.3 / 329  18.7   90  .86

          21 18  17 58.87  +51 29.8   5.274  5.504    17.3 / 329  18.7   88  .92

          22 18  17 57.90  +51 44.6   5.267  5.501    17.4 / 328  18.7   86  .97

          23 18  17 56.90  +51 59.3   5.260  5.498    17.4 / 327  18.7   84  .99

          24 18  17 55.86  +52 13.8   5.254  5.495    17.4 / 326  18.7   82 1.00

          25 18  17 54.80  +52 28.3   5.247  5.491    17.5 / 325  18.6   81  .98

          26 18  17 53.71  +52 42.7   5.241  5.488    17.5 / 325  18.6   81  .93

          27 18  17 52.59  +52 56.9   5.235  5.485    17.5 / 324  18.6   81  .86

          28 18  17 51.43  +53 11.0   5.229  5.482    17.6 / 323  18.6   82  .78

          29 18  17 50.24  +53 25.0   5.223  5.479    17.6 / 322  18.6   83  .67

          30 18  17 49.03  +53 38.9   5.217  5.475    17.6 / 321  18.6   85  .56

     May   1 18  17 47.77  +53 52.6   5.212  5.472    17.7 / 320  18.6   88  .44

           2 18  17 46.49  +54 06.1   5.207  5.469    17.7 / 319  18.6   90  .33

           3 18  17 45.18  +54 19.5   5.201  5.466    17.7 / 319  18.6   92  .23

           4 18  17 43.83  +54 32.7   5.197  5.463    17.7 / 318  18.6   94  .15

           5 18  17 42.45  +54 45.8   5.192  5.460    17.7 / 317  18.6   96  .08

           6 18  17 41.04  +54 58.7   5.187  5.457    17.7 / 316  18.6   97  .03

           7 18  17 39.60  +55 11.4   5.183  5.453    17.7 / 315  18.6   98  .00

           8 18  17 38.13  +55 23.9   5.179  5.450    17.8 / 314  18.6   98  .00

           9 18  17 36.62  +55 36.2   5.175  5.447    17.8 / 313  18.6   98  .02

          10 18  17 35.08  +55 48.3   5.171  5.444    17.8 / 312  18.6   97  .06

          11 18  17 33.52  +56 00.2   5.167  5.441    17.7 / 311  18.6   96  .11

          12 18  17 31.92  +56 11.9   5.164  5.438    17.7 / 310  18.6   94  .18

